This is the latest recevied weather packets stored in our database for station/object N4YH-13. If no packets are shown the sender has not sent any weather packets the latest 10 day(s).
| Time | Temp. | Humidity | Pressure | Rain* | Wind** | Luminosity | Snow |
|---|---|---|---|---|---|---|---|
| 1777915443 | 22.22° C | 53% | 1013.7 hPa | 0 mm | - | - | - |
| 1777915323 | 22.22° C | 52% | 1013.7 hPa | 0 mm | - | - | - |
| 1777915203 | 22.78° C | 53% | 1013.8 hPa | 0 mm | - | - | - |
| 1777915084 | 22.78° C | 51% | 1013.9 hPa | 0 mm | - | - | - |
| 1777914964 | 22.78° C | 52% | 1013.9 hPa | 0 mm | - | - | - |
| 1777914844 | 22.78° C | 55% | 1014 hPa | 0 mm | - | - | - |
| 1777914723 | 22.78° C | 53% | 1013.9 hPa | 0 mm | - | - | - |
| 1777914603 | 22.78° C | 52% | 1013.9 hPa | 0 mm | - | - | - |
| 1777914483 | 22.78° C | 54% | 1013.9 hPa | 0 mm | - | - | - |
| 1777914364 | 22.78° C | 51% | 1013.9 hPa | 0 mm | - | - | - |
| 1777914244 | 22.78° C | 52% | 1013.9 hPa | 0 mm | - | - | - |
| 1777914124 | 22.78° C | 53% | 1014.2 hPa | 0 mm | - | - | - |
| 1777914003 | 22.78° C | 52% | 1014.2 hPa | 0 mm | - | - | - |
| 1777913883 | 22.78° C | 53% | 1014.2 hPa | 0 mm | - | - | - |
| 1777913763 | 22.78° C | 53% | 1014.2 hPa | 0 mm | - | - | - |
| 1777913643 | 22.78° C | 53% | 1014.2 hPa | 0 mm | - | - | - |
| 1777913523 | 22.78° C | 54% | 1014.2 hPa | 0 mm | - | - | - |
| 1777913404 | 22.78° C | 51% | 1014.2 hPa | 0 mm | - | - | - |
| 1777913284 | 22.78° C | 50% | 1014.5 hPa | 0 mm | - | - | - |
| 1777913164 | 22.78° C | 54% | 1014.5 hPa | 0 mm | - | - | - |
| 1777913043 | 22.22° C | 54% | 1014.5 hPa | 0 mm | - | - | - |
| 1777912923 | 22.22° C | 54% | 1014.5 hPa | 0 mm | - | - | - |
| 1777912803 | 22.22° C | 54% | 1014.5 hPa | 0 mm | - | - | - |
| 1777912683 | 22.22° C | 55% | 1014.4 hPa | 0 mm | - | - | - |
| 1777912564 | 21.67° C | 57% | 1014.4 hPa | 0 mm | - | - | - |
* Rain latest hour (hover to see other rain measurements)
** Current wind speed in m/s (hover to see current wind gust speed)